Location: ????????
(55.7667°N, 37.4833°E)
Time: 04:49:21
(UTC+00:00)

Cosmos 1933 Rocket - Pass Details

Date: 19 May 2025
Orbit: 601 x 623 km, 82.5° (Epoch: 19 June)

Event Time Altitude Azimuth Distance (km) Brightness Sun altitude
Rises 22:55:34 0° 345° (NNW) 2,920 8.0 -11.9°
Reaches altitude 10° 22:57:50 10° 341° (NNW) 2,009 6.9 -11.8°
Maximum altitude 23:02:10 53° 265° (W) 773 3.9 -11.6°
Enters shadow 23:05:33 16° 192° (SSW) 1,641 5.1 -11.4°
